Time,TemperatureF,DewpointF,PressureIn,WindDirection,WindDirectionDegrees,WindSpeedMPH,WindSpeedGustMPH,Humidity,HourlyPrecipIn,Conditions,Clouds,dailyrainin,SoftwareType,DateUTC
2013-02-16 00:01:00,23.0,13.0,-100.00,WNW,302,17.0,23.0,65,0.00,,,-99.99,,2013-02-16 05:01:00,
2013-02-16 00:12:00,23.0,13.0,-100.00,WNW,301,17.0,25.0,65,0.00,,,-99.99,,2013-02-16 05:12:00,
2013-02-16 00:22:00,23.0,13.0,-100.00,NW,308,19.0,24.0,65,0.00,,,-99.99,,2013-02-16 05:22:00,
2013-02-16 00:32:00,23.0,13.0,-100.00,NW,304,16.0,21.0,66,0.00,,,-99.99,,2013-02-16 05:32:00,
2013-02-16 00:42:00,23.0,14.0,-100.00,NW,305,17.0,22.0,66,0.00,,,-99.99,,2013-02-16 05:42:00,
2013-02-16 00:52:00,23.0,14.0,-100.00,WNW,302,21.0,26.0,66,0.00,,,-99.99,,2013-02-16 05:52:00,
2013-02-16 01:02:00,23.0,14.0,-100.00,WNW,302,24.0,28.0,66,0.00,,,-99.99,,2013-02-16 06:02:00,
2013-02-16 01:11:00,23.0,14.0,-100.00,WNW,302,22.0,27.0,66,0.00,,,-99.99,,2013-02-16 06:11:00,
2013-02-16 01:21:00,23.0,14.0,-100.00,NW,306,22.0,26.0,66,0.00,,,-99.99,,2013-02-16 06:21:00,
2013-02-16 01:32:00,23.0,13.0,-100.00,NW,304,24.0,29.0,65,0.00,,,-99.99,,2013-02-16 06:32:00,
2013-02-16 01:42:00,23.0,13.0,-100.00,NW,305,26.0,30.0,65,0.00,,,-99.99,,2013-02-16 06:42:00,
2013-02-16 01:51:00,24.0,13.0,-100.00,NW,306,29.0,35.0,65,0.00,,,-99.99,,2013-02-16 06:51:00,
2013-02-16 02:02:00,24.0,14.0,-100.00,NW,308,26.0,30.0,65,0.00,,,-99.99,,2013-02-16 07:02:00,
2013-02-16 02:11:00,24.0,14.0,-100.00,NW,309,27.0,32.0,64,0.00,,,-99.99,,2013-02-16 07:11:00,
2013-02-16 02:21:00,24.0,14.0,-100.00,NW,308,30.0,35.0,65,0.00,,,-99.99,,2013-02-16 07:21:00,
2013-02-16 02:31:00,24.0,14.0,-100.00,NW,309,28.0,34.0,65,0.00,,,-99.99,,2013-02-16 07:31:00,
2013-02-16 02:42:00,24.0,14.0,-100.00,NW,309,27.0,34.0,65,0.00,,,-99.99,,2013-02-16 07:42:00,
2013-02-16 02:52:00,24.0,14.0,-100.00,NW,311,27.0,34.0,63,0.00,,,-99.99,,2013-02-16 07:52:00,
2013-02-16 03:01:00,24.0,14.0,-100.00,NW,306,35.0,42.0,63,0.00,,,-99.99,,2013-02-16 08:01:00,
2013-02-16 03:11:00,24.0,14.0,-100.00,NW,309,38.0,44.0,64,0.00,,,-99.99,,2013-02-16 08:11:00,
2013-02-16 03:21:00,24.0,14.0,-100.00,NW,309,34.0,39.0,65,0.00,,,-99.99,,2013-02-16 08:21:00,
2013-02-16 03:31:00,24.0,13.0,-100.00,NW,311,36.0,42.0,64,0.00,,,-99.99,,2013-02-16 08:31:00,
2013-02-16 03:41:00,24.0,14.0,-100.00,NW,309,33.0,37.0,64,0.00,,,-99.99,,2013-02-16 08:41:00,
2013-02-16 03:52:00,24.0,14.0,-100.00,NW,312,37.0,43.0,64,0.00,,,-99.99,,2013-02-16 08:52:00,
2013-02-16 04:01:00,24.0,14.0,-100.00,NW,311,39.0,44.0,63,0.00,,,-99.99,,2013-02-16 09:01:00,
2013-02-16 04:11:00,24.0,14.0,-100.00,NW,312,40.0,46.0,63,0.00,,,-99.99,,2013-02-16 09:11:00,
2013-02-16 04:21:00,25.0,13.0,-100.00,NW,311,39.0,45.0,62,0.00,,,-99.99,,2013-02-16 09:21:00,
2013-02-16 04:31:00,25.0,13.0,-100.00,NW,312,40.0,46.0,61,0.00,,,-99.99,,2013-02-16 09:31:00,
2013-02-16 04:42:00,25.0,13.0,-100.00,NW,313,38.0,45.0,60,0.00,,,-99.99,,2013-02-16 09:42:00,
2013-02-16 04:51:00,25.0,13.0,-100.00,NW,309,40.0,47.0,61,0.00,,,-99.99,,2013-02-16 09:51:00,
2013-02-16 05:01:00,25.0,13.0,-100.00,NW,308,39.0,46.0,61,0.00,,,-99.99,,2013-02-16 10:01:00,
2013-02-16 05:11:00,25.0,13.0,-100.00,NW,309,41.0,46.0,60,0.00,,,-99.99,,2013-02-16 10:11:00,
2013-02-16 05:21:00,25.0,13.0,-100.00,NW,311,37.0,43.0,61,0.00,,,-99.99,,2013-02-16 10:21:00,
2013-02-16 05:31:00,25.0,13.0,-100.00,NW,311,37.0,44.0,61,0.00,,,-99.99,,2013-02-16 10:31:00,
2013-02-16 05:41:00,24.0,13.0,-100.00,NW,311,40.0,49.0,60,0.00,,,-99.99,,2013-02-16 10:41:00,
2013-02-16 05:51:00,25.0,13.0,-100.00,NW,309,41.0,47.0,60,0.00,,,-99.99,,2013-02-16 10:51:00,
2013-02-16 06:02:00,25.0,13.0,-100.00,NW,309,41.0,46.0,60,0.00,,,-99.99,,2013-02-16 11:02:00,
2013-02-16 08:41:00,25.0,11.0,-100.00,NW,309,41.0,51.0,56,0.00,,,-99.99,,2013-02-16 13:41:00,
2013-02-16 08:51:00,25.0,11.0,-100.00,NW,311,41.0,48.0,57,0.00,,,-99.99,,2013-02-16 13:51:00,
2013-02-16 09:01:00,25.0,11.0,-100.00,NW,309,44.0,51.0,56,0.00,,,-99.99,,2013-02-16 14:01:00,
2013-02-16 09:11:00,25.0,11.0,-100.00,NW,309,41.0,51.0,56,0.00,,,-99.99,,2013-02-16 14:11:00,
2013-02-16 09:21:00,26.0,12.0,-100.00,NW,312,42.0,48.0,55,0.00,,,-99.99,,2013-02-16 14:21:00,
2013-02-16 09:32:00,25.0,11.0,-100.00,NW,309,38.0,46.0,55,0.00,,,-99.99,,2013-02-16 14:32:00,
2013-02-16 09:41:00,25.0,11.0,-100.00,NW,309,35.0,43.0,55,0.00,,,-99.99,,2013-02-16 14:41:00,
2013-02-16 09:52:00,25.0,12.0,-100.00,NW,312,32.0,40.0,56,0.00,,,-99.99,,2013-02-16 14:52:00,
2013-02-16 10:01:00,26.0,12.0,-100.00,NW,312,31.0,37.0,56,0.00,,,-99.99,,2013-02-16 15:01:00,
2013-02-16 10:11:00,26.0,12.0,-100.00,NW,309,34.0,40.0,55,0.00,,,-99.99,,2013-02-16 15:11:00,
2013-02-16 10:21:00,27.0,13.0,-100.00,NW,309,34.0,42.0,55,0.00,,,-99.99,,2013-02-16 15:21:00,
2013-02-16 10:32:00,27.0,13.0,-100.00,NW,309,36.0,45.0,54,0.00,,,-99.99,,2013-02-16 15:32:00,
2013-02-16 10:41:00,28.0,13.0,-100.00,NW,309,35.0,41.0,53,0.00,,,-99.99,,2013-02-16 15:41:00,
2013-02-16 10:51:00,28.0,13.0,-100.00,NW,311,35.0,43.0,53,0.00,,,-99.99,,2013-02-16 15:51:00,
2013-02-16 11:01:00,29.0,13.0,-100.00,NW,312,40.0,44.0,51,0.00,,,-99.99,,2013-02-16 16:01:00,
2013-02-16 11:11:00,30.0,14.0,-100.00,NW,312,31.0,37.0,51,0.00,,,-99.99,,2013-02-16 16:11:00,
2013-02-16 11:21:00,30.0,14.0,-100.00,NW,312,37.0,43.0,51,0.00,,,-99.99,,2013-02-16 16:21:00,
2013-02-16 11:32:00,31.0,13.0,-100.00,NW,313,38.0,44.0,48,0.00,,,-99.99,,2013-02-16 16:32:00,
2013-02-16 11:41:00,31.0,15.0,-100.00,NW,312,37.0,45.0,50,0.00,,,-99.99,,2013-02-16 16:41:00,
2013-02-16 11:51:00,32.0,15.0,-100.00,NW,315,35.0,44.0,49,0.00,,,-99.99,,2013-02-16 16:51:00,
2013-02-16 12:01:00,32.0,14.0,-100.00,NW,313,37.0,44.0,47,0.00,,,-99.99,,2013-02-16 17:01:00,
2013-02-16 12:11:00,33.0,14.0,-100.00,NW,313,33.0,37.0,46,0.00,,,-99.99,,2013-02-16 17:11:00,
2013-02-16 12:21:00,33.0,14.0,-100.00,NW,313,31.0,36.0,46,0.00,,,-99.99,,2013-02-16 17:21:00,
2013-02-16 12:32:00,34.0,16.0,-100.00,NW,312,24.0,30.0,47,0.00,,,-99.99,,2013-02-16 17:32:00,
2013-02-16 12:41:00,34.0,15.0,-100.00,NW,311,29.0,37.0,45,0.00,,,-99.99,,2013-02-16 17:41:00,
2013-02-16 12:52:00,35.0,14.0,-100.00,NW,315,28.0,38.0,43,0.00,,,-99.99,,2013-02-16 17:52:00,
2013-02-16 13:02:00,35.0,16.0,-100.00,NW,311,33.0,39.0,46,0.00,,,-99.99,,2013-02-16 18:02:00,
2013-02-16 13:11:00,35.0,15.0,-100.00,NW,309,33.0,43.0,44,0.00,,,-99.99,,2013-02-16 18:11:00,
2013-02-16 13:21:00,36.0,14.0,-100.00,NW,308,33.0,41.0,40,0.00,,,-99.99,,2013-02-16 18:21:00,
2013-02-16 13:33:00,36.0,15.0,-100.00,NW,305,34.0,40.0,41,0.00,,,-99.99,,2013-02-16 18:33:00,
2013-02-16 13:42:00,36.0,15.0,-100.00,NW,309,39.0,49.0,41,0.00,,,-99.99,,2013-02-16 18:42:00,
2013-02-16 13:51:00,37.0,16.0,-100.00,NW,306,34.0,40.0,41,0.00,,,-99.99,,2013-02-16 18:51:00,
2013-02-16 14:02:00,38.0,15.0,-100.00,WNW,302,27.0,34.0,38,0.00,,,-99.99,,2013-02-16 19:02:00,
2013-02-16 14:11:00,38.0,17.0,-100.00,WNW,299,25.0,30.0,41,0.00,,,-99.99,,2013-02-16 19:11:00,
2013-02-16 14:21:00,38.0,14.0,-100.00,NW,305,27.0,37.0,37,0.00,,,-99.99,,2013-02-16 19:21:00,
2013-02-16 14:31:00,39.0,16.0,-100.00,WNW,302,27.0,32.0,39,0.00,,,-99.99,,2013-02-16 19:31:00,
2013-02-16 14:42:00,40.0,15.0,-100.00,NW,304,31.0,38.0,36,0.00,,,-99.99,,2013-02-16 19:42:00,
2013-02-16 14:52:00,39.0,15.0,-100.00,WNW,299,34.0,40.0,37,0.00,,,-99.99,,2013-02-16 19:52:00,
2013-02-16 15:01:00,40.0,15.0,-100.00,WNW,302,30.0,38.0,36,0.00,,,-99.99,,2013-02-16 20:01:00,
2013-02-16 15:11:00,40.0,15.0,-100.00,NW,306,32.0,43.0,35,0.00,,,-99.99,,2013-02-16 20:11:00,
2013-02-16 15:21:00,41.0,14.0,-100.00,NW,309,32.0,40.0,33,0.00,,,-99.99,,2013-02-16 20:21:00,
2013-02-16 15:32:00,41.0,14.0,-100.00,NW,313,37.0,46.0,34,0.00,,,-99.99,,2013-02-16 20:32:00,
2013-02-16 15:42:00,41.0,14.0,-100.00,NW,313,37.0,45.0,33,0.00,,,-99.99,,2013-02-16 20:42:00,
2013-02-16 15:52:00,41.0,14.0,-100.00,NW,313,37.0,44.0,33,0.00,,,-99.99,,2013-02-16 20:52:00,
2013-02-16 16:02:00,41.0,13.0,-100.00,NW,311,38.0,44.0,32,0.00,,,-99.99,,2013-02-16 21:02:00,
2013-02-16 16:11:00,42.0,13.0,-100.00,NW,312,38.0,44.0,32,0.00,,,-99.99,,2013-02-16 21:11:00,
2013-02-16 16:21:00,41.0,14.0,-100.00,NW,313,39.0,45.0,33,0.00,,,-99.99,,2013-02-16 21:21:00,
2013-02-16 16:31:00,41.0,14.0,-100.00,NW,311,35.0,40.0,33,0.00,,,-99.99,,2013-02-16 21:31:00,
2013-02-16 16:41:00,42.0,14.0,-100.00,NW,311,34.0,41.0,32,0.00,,,-99.99,,2013-02-16 21:41:00,
2013-02-16 16:52:00,42.0,14.0,-100.00,NW,311,34.0,39.0,32,0.00,,,-99.99,,2013-02-16 21:52:00,
2013-02-16 17:01:00,42.0,14.0,-100.00,NW,312,32.0,38.0,32,0.00,,,-99.99,,2013-02-16 22:01:00,
2013-02-16 17:11:00,41.0,13.0,-100.00,NW,309,30.0,39.0,32,0.00,,,-99.99,,2013-02-16 22:11:00,
2013-02-16 17:21:00,41.0,14.0,-100.00,NW,306,30.0,37.0,33,0.00,,,-99.99,,2013-02-16 22:21:00,
2013-02-16 17:32:00,42.0,14.0,-100.00,NW,311,26.0,32.0,32,0.00,,,-99.99,,2013-02-16 22:32:00,
2013-02-16 17:42:00,42.0,14.0,-100.00,NW,308,27.0,34.0,31,0.00,,,-99.99,,2013-02-16 22:42:00,
2013-02-16 17:51:00,41.0,13.0,-100.00,NW,313,29.0,37.0,32,0.00,,,-99.99,,2013-02-16 22:51:00,
2013-02-16 18:02:00,40.0,13.0,-100.00,NW,311,32.0,37.0,33,0.00,,,-99.99,,2013-02-16 23:02:00,
2013-02-16 20:31:00,33.0,8.0,-100.00,NW,304,18.0,23.0,35,0.00,,,-99.99,,2013-02-17 01:31:00,
2013-02-16 20:41:00,33.0,9.0,-100.00,NW,313,19.0,24.0,35,0.00,,,-99.99,,2013-02-17 01:41:00,
2013-02-16 20:52:00,32.0,9.0,-100.00,NW,313,16.0,19.0,38,0.00,,,-99.99,,2013-02-17 01:52:00,
2013-02-16 21:01:00,33.0,9.0,-100.00,NW,309,23.0,26.0,37,0.00,,,-99.99,,2013-02-17 02:01:00,
2013-02-16 21:11:00,33.0,9.0,-100.00,NW,309,21.0,27.0,37,0.00,,,-99.99,,2013-02-17 02:11:00,
2013-02-16 21:21:00,33.0,8.0,-100.00,NW,316,22.0,28.0,35,0.00,,,-99.99,,2013-02-17 02:21:00,
2013-02-16 21:31:00,33.0,8.0,-100.00,NW,313,22.0,28.0,34,0.00,,,-99.99,,2013-02-17 02:31:00,
2013-02-16 21:41:00,33.0,9.0,-100.00,NW,312,25.0,30.0,35,0.00,,,-99.99,,2013-02-17 02:41:00,
2013-02-16 21:52:00,33.0,9.0,-100.00,NW,306,21.0,28.0,36,0.00,,,-99.99,,2013-02-17 02:52:00,
2013-02-16 22:02:00,32.0,9.0,-100.00,NW,304,23.0,27.0,38,0.00,,,-99.99,,2013-02-17 03:02:00,
2013-02-16 22:11:00,32.0,9.0,-100.00,NW,305,27.0,34.0,37,0.00,,,-99.99,,2013-02-17 03:11:00,
2013-02-16 22:21:00,32.0,8.0,-100.00,NW,308,29.0,35.0,37,0.00,,,-99.99,,2013-02-17 03:21:00,
2013-02-16 22:31:00,31.0,8.0,-100.00,NW,306,29.0,34.0,37,0.00,,,-99.99,,2013-02-17 03:31:00,
2013-02-16 22:42:00,31.0,8.0,-100.00,NW,308,27.0,31.0,38,0.00,,,-99.99,,2013-02-17 03:42:00,
2013-02-16 22:51:00,31.0,8.0,-100.00,NW,304,25.0,31.0,38,0.00,,,-99.99,,2013-02-17 03:51:00,
2013-02-16 23:01:00,31.0,8.0,-100.00,NW,306,26.0,30.0,37,0.00,,,-99.99,,2013-02-17 04:01:00,
2013-02-16 23:11:00,31.0,8.0,-100.00,WNW,301,24.0,29.0,38,0.00,,,-99.99,,2013-02-17 04:11:00,
2013-02-16 23:21:00,31.0,8.0,-100.00,WNW,299,23.0,28.0,38,0.00,,,-99.99,,2013-02-17 04:21:00,
2013-02-16 23:31:00,30.0,9.0,-100.00,WNW,288,20.0,22.0,41,0.00,,,-99.99,,2013-02-17 04:31:00,
2013-02-16 23:41:00,30.0,9.0,-100.00,WNW,295,21.0,26.0,41,0.00,,,-99.99,,2013-02-17 04:41:00,
2013-02-16 23:51:00,30.0,9.0,-100.00,WNW,291,22.0,28.0,40,0.00,,,-99.99,,2013-02-17 04:51:00,